EHI
0 0 0 0 0 0 0 0 0 0 0 0 0 0 0 0 0 0 0 0 0 0 0 0 0 0 0 0 0 0 0 0 0 0 0 0 0 0 0 0 0 0 0 0
0 0 0 0 0 0 0 0 0 0 0 0 0 0 0 0 0 0 0 0 0 0 0 0 0 0 0 0 0 0 0 0 0 0 0 0 0 0 0 0 0 0 0 0
0 0 0 0 0 0 0 0 0 0 0 0 0 0 0 0 0 0 0 0 0 0 0 0 0 0 0 0 0 0 0 0 0 0 0 0 0 0 0 0 0 0 0 0
0 0 0 0 0 0 0 0 0 0 0 0 0 0 0 0 0 0 0 0 0 0 0 0 0 0 0 0 0 0 0 0 0 0 0 0 0 0 0 0 0 0 0 0
0 0 0 0 0 0 0 0 0 0 0 0 0 0 0 0 0 0 0 0 0 0 0 0 0 0 0 0 0 0 0 0 0 0 0 0 0 0 0 0 0 0 0 0
0 0 0 0 0 0 0 0 0 0 0 0 0 0 0 0 0 0 0 0 0 0 0 0 0 0 0 0 0 0 0 0 0 0 0 0 0 0 0 0 0 0 0 0
0 0 0 0 0 0 0 0 0 0 0 0 0 0 0 0 0 0 0 0 0 0 0 0 0 0 0 0 0 0 0 0 0 0 0 0 0 0 0 0 0 0 0 0
0 0 0 0 0 0 0 0 0 0 0 0 0 0 0 0 0 0 0 0 0 0 0 0 0 0 0 0 0 0 0 0 0 0 0 0 0 0 0 0 0 0 0 0
0 0 0 0 0 0 0 0 0 0 0 0 0 0 0 0 0 0 0 0 0 0 0 0 0 0 0 0 0 0 0 0 0 0 0 0 0 0 0 0 0 0 0 0
0 0 0 0 0 0 0 0 0 0 0 0 0 0 0 0 0 0 0 0 0 0 0 0 0 0 0 0 0 0 0 0 0 0 0 0 0 0 0 0 0 0 0 0
0 0 0 0 0 0 0 0 0 0 0 0 0 0 0 0 0 0 0 0 0 0 0 0 0 0 0 0 0 0 0 0 0 0 0 0 0 0 0 0 0 0 0 0
0 0 0 0 0 0 0 0 0 0 0 0 0 0 0 0 0 0 0 0 0 0 0 0 0 0 0 0 0 0 0 0 0 0 0 0 0 0 0 0 0 0 0 0
0 0 0 0 0 0 0 0 0 0 0 0 0 0 0 0 0 0 0 0 0 0 0 0 0 0 0 0 0 0 0 0 0 0 0 0 0 0 0 0 0 0 0 0
0 0 0 0 0 0 0 0 0 0 0 0 0 0 0 0 0 0 0 0 0 0 0 0 0 0 0 0 0 0 0 0 0 0 0 0 0 0 0 0 0 0 0 0
0 0 0 0 0 0 0 0 0 0 0 0 0 0 0 0 0 0 0 0 0 0 0 0 0 0 0 0 0 0 0 0 0 0 0 0 0 0 0 0 0 0 0 0
0 0 0 0 0 0 0 0 0 0 0 0 0 0 0 0 0 0 0 0 0 0 0 0 0 0 0 0 0 0 0 0 0 0 0 0 0 0 0 0 0 0 0 0
0 0 0 0 0 0 0 0 0 0 0 0 0 0 0 0 0 0 0 0 0 0 0 0 0 0 0 0 0 0 0 0 0 0 0 0 0 0 0 0 0 0 0 0
0 0 0 0 0 0 0 0 0 0 0 0 0 0 0 0 0 0 0 0 0 0 0 0 0 0 0 0 0 0 0 0 0 0 0 0 0 0 0 0 0 0 0 0
0 0 0 0 0 0 0 0 0 0 0 0 0 0 0 0 0 0 0 0 0 0 0 0 0 0 0 0 0 0 0 0 0 0 0 0 0 0 0 0 0 0 0 0
0 0 0 0 0 0 0 0 0 0 0 0 0 0 0 0 0 0 0 0 0 0 0 0 0 0 0 0 0 0 0 0 0 0 0 0 0 0 0 0 0 0 0 0
0 0 0 0 0 0 0 0 0 0 0 0 0 0 0 0 0 0 0 0 0 0 0 0 0 0 0 0 0 0 0 0 0 0 0 0 0 0 0 0 0 0 0 0
0 0 0 0 0 0 0 0 0 0 0 0 0 0 0 0 0 0 0 0 0 0 0 0 0 0 0 0 0 0 0 0 0 0 0 0 0 0 0 0 0 0 0 0
0 0 0 0 0 0 0 0 0 0 0 0 0 0 0 0 0 0 0 0 0 0 0 0 0 0 0 0 0 0 0 0 0 0 0 0 0 0 0 0 0 0 0 0
0 0 0 0 0 0 0 0 0 0 0 0 0 0 0 0 0 0 0 0 0 0 0 0 0 0 0 0 0 0 0 0 0 0 0 0 0 0 0 0 0 0 0 0
0 0 0 0 0 0 0 0 0 0 0 0 0 0 0 0 0 0 0 0 0 0 0 0 0 0 0 0 0 0 0 0 0 0 0 0 0 0 0 0 0 0 0 0
0 0 0 0 0 0 0 0 0 0 0 0 0 0 0 0 0 0 0 0 0 0 0 0 0 0 0 0 0 0 0 0 0 0 0 0 0 0 0 0 0 0 0 0
0 0 0 0 0 0 0 0 0 0 0 0 0 0 0 0 0 0 0 0 0 0 0 0 0 0 0 0 0 0 0 0 0 0 0 0 0 0 0 0 0 0 0 0
Wind_Speed
8 5 7 9 9 8 10 12 12 11 9 7 3 4 5 6 8 9 10 10 10 10 9 8 8 7 7 6 6 6 7 8 8 8 8 8 9 9 9 10 11 11 11 11
10 8 8 10 10 10 9 10 10 11 10 5 1 3 5 6 8 9 10 10 10 10 9 9 9 8 7 6 6 6 7 8 8 8 8 9 9 9 10 10 10 10 11 12
10 7 8 10 6 5 4 5 7 9 6 2 2 4 5 6 8 9 9 9 10 10 9 9 8 8 7 6 6 6 7 8 8 8 9 9 9 10 10 11 11 11 11 12
9 8 10 4 1 3 5 6 6 7 6 3 3 2 4 6 7 8 9 9 9 9 9 9 8 8 7 7 6 7 7 8 8 8 9 9 9 10 10 10 10 10 11 12
8 9 9 6 3 4 5 8 5 4 4 3 1 5 8 9 10 10 9 9 9 9 9 9 9 8 8 7 7 7 8 8 8 8 9 9 10 10 10 10 10 11 11 11
7 8 8 2 5 1 5 7 3 2 4 4 4 7 5 2 9 11 11 9 9 9 9 9 9 8 8 8 8 8 8 7 8 8 9 10 10 10 10 10 10 11 11 11
9 9 7 5 4 3 6 6 10 8 7 7 7 9 8 4 6 9 10 11 11 11 10 10 10 9 9 9 9 8 7 7 8 8 9 10 10 10 10 10 11 11 12 12
6 8 2 8 2 4 8 10 10 11 10 10 10 12 11 9 8 8 9 11 11 11 10 9 10 10 10 10 8 7 7 8 8 8 9 8 9 10 10 11 11 12 11 12
4 4 7 8 7 8 9 10 11 12 12 11 12 12 11 10 9 9 10 9 10 11 11 10 11 11 11 9 7 7 8 8 8 9 9 9 10 11 10 10 9 9 9 10
6 3 5 8 9 9 10 10 10 10 10 10 10 10 10 8 7 7 7 8 9 10 11 10 10 11 10 8 7 7 8 8 8 9 10 9 8 9 9 9 9 9 9 10
8 2 1 8 11 11 10 10 10 10 10 10 10 9 9 8 7 7 6 5 6 8 9 9 9 9 8 8 8 9 9 9 9 10 9 8 9 8 10 9 8 10 11 10
3 5 4 6 8 9 9 11 12 12 13 13 12 12 11 9 8 8 7 5 4 5 6 6 6 6 7 7 9 10 9 10 9 8 7 8 9 9 10 12 11 13 15 14
2 5 6 6 7 9 9 10 11 12 13 12 13 12 12 10 9 9 8 7 5 4 5 5 6 7 8 8 10 11 11 10 9 9 8 8 8 9 9 9 13 17 18 17
6 6 8 7 8 9 10 10 11 12 13 13 12 12 12 11 11 10 10 9 8 7 6 6 7 8 8 9 11 12 12 11 10 9 9 9 8 9 9 9 10 9 10 15
9 8 8 8 8 10 11 11 12 12 13 13 12 12 12 12 12 11 10 10 9 9 8 8 9 9 8 9 11 12 12 10 9 9 9 9 9 9 9 10 9 9 9 7
9 9 8 9 10 11 11 12 12 12 12 12 12 12 12 11 11 11 11 11 11 11 11 11 11 11 10 10 10 10 11 12 10 9 9 9 8 9 9 9 9 9 8 8
7 8 8 9 10 10 10 11 11 12 12 13 13 12 12 12 11 11 12 12 12 11 11 11 12 12 13 12 11 10 10 9 11 10 10 9 8 9 9 8 8 8 8 7
7 7 6 7 8 9 10 11 11 12 12 13 13 12 12 12 12 12 13 13 13 13 12 12 13 15 15 13 11 10 10 10 9 9 8 8 8 8 8 8 9 9 8 7
5 5 6 6 7 9 10 11 12 12 12 12 12 12 12 12 12 12 13 14 14 13 13 15 14 16 16 13 11 9 10 10 9 8 8 6 7 9 8 8 8 8 8 7
4 5 7 8 9 10 10 11 12 11 11 12 12 12 12 12 13 13 14 13 11 12 15 16 17 15 15 12 10 10 10 10 9 8 7 7 7 7 7 7 7 7 7 7
5 7 9 10 10 11 11 12 11 12 11 12 12 13 13 13 14 13 13 13 12 12 14 15 13 13 13 12 12 12 11 9 8 7 6 6 7 7 6 6 6 6 6 6
7 9 11 11 11 11 11 11 12 12 12 12 13 14 14 14 14 14 13 11 12 11 12 13 13 13 13 15 12 11 10 8 7 5 5 5 5 5 5 6 6 6 6 6
9 10 11 11 12 12 13 12 12 12 12 13 14 15 15 14 12 13 12 10 11 12 13 13 13 13 15 13 10 9 8 6 5 4 3 3 4 4 5 5 5 5 5 5
10 10 11 12 13 14 14 13 13 12 13 14 14 14 13 12 11 10 11 11 10 11 12 11 11 13 14 10 8 6 5 3 2 2 2 2 2 3 4 4 5 5 5 6
11 12 13 13 13 12 12 13 14 13 14 12 14 14 12 11 11 11 11 13 12 11 12 10 10 11 10 8 7 5 4 3 3 2 2 2 3 3 3 3 4 5 5 5
11 11 11 12 11 11 12 11 10 10 11 12 11 11 11 11 12 11 10 12 14 11 10 9 9 9 7 7 6 5 4 3 3 3 3 3 3 3 3 4 5 4 5 5
12 12 10 10 10 10 10 10 11 11 11 11 12 12 12 12 11 11 12 10 9 9 8 7 7 7 6 6 5 5 5 5 5 4 4 4 4 4 4 5 4 4 5 5
Wind_Direction
273 279 278 285 286 267 254 273 284 292 294 302 292 238 224 214 206 203 200 199 202 206 204 205 209 216 227 239 246 254 261 265 267 270 275 279 281 281 281 281 281 282 281 280
261 257 267 275 277 275 267 267 272 278 282 310 337 218 216 212 210 211 211 210 209 210 210 209 212 218 224 234 242 246 258 267 272 275 277 279 282 283 283 282 283 282 280 280
267 267 267 265 263 270 267 264 276 285 310 16 252 225 231 226 222 225 224 219 215 214 214 213 213 215 222 231 240 247 255 264 270 273 277 282 285 287 287 287 285 282 280 279
268 269 263 281 123 277 284 287 279 280 289 276 274 271 251 243 238 233 229 224 219 217 212 209 209 208 216 227 234 248 257 264 270 274 278 283 285 286 287 287 286 283 282 280
266 261 257 253 203 232 269 290 300 288 281 252 220 249 239 219 225 233 232 226 222 220 214 206 206 205 210 227 238 249 258 265 271 276 281 282 284 287 289 287 284 282 280 280
250 270 271 313 77 46 268 269 31 331 295 283 214 271 304 189 208 223 228 223 216 212 210 200 201 201 212 229 239 249 261 268 273 275 277 280 284 288 288 285 281 282 283 283
250 258 264 43 67 216 256 4 3 334 313 294 259 276 309 282 231 226 226 221 214 211 209 204 197 197 214 231 241 251 260 266 268 270 271 273 279 282 283 282 284 285 285 282
251 261 296 63 17 332 349 339 332 324 313 302 285 279 282 274 257 243 235 226 215 211 212 203 196 200 216 229 239 248 254 259 263 266 270 275 276 278 280 281 281 279 279 280
287 317 47 36 13 0 342 326 325 321 317 306 293 288 286 279 269 258 249 240 225 218 216 205 198 205 222 228 230 239 248 256 262 267 267 269 273 277 277 274 275 282 286 286
272 276 49 38 27 15 2 347 340 337 333 327 315 313 313 308 300 287 270 255 238 227 224 214 205 208 221 228 226 231 244 256 261 263 264 263 267 271 275 280 282 283 284 287
260 302 103 57 26 12 13 14 13 13 13 7 360 355 349 344 337 326 310 287 259 238 233 227 212 212 217 219 221 228 239 250 258 262 264 269 267 269 274 278 286 288 292 294
342 34 0 38 26 23 28 30 27 25 26 25 22 16 12 9 4 355 345 333 302 271 251 237 220 216 217 219 221 228 238 246 252 257 260 264 270 270 242 240 251 246 249 261
26 55 74 75 46 32 34 34 34 33 28 23 21 16 15 11 9 6 3 356 335 297 262 243 230 229 224 218 224 229 238 245 253 259 261 262 266 274 282 261 233 236 240 243
115 112 85 62 48 37 32 31 32 32 28 23 18 14 11 8 7 5 1 354 343 322 299 280 266 258 249 235 230 234 240 244 244 253 256 260 265 270 275 284 290 283 249 233
94 93 90 74 52 38 28 22 20 18 13 12 11 8 4 1 359 358 355 350 343 329 321 311 301 294 288 269 253 246 245 247 242 247 252 256 262 265 269 274 277 283 289 271
105 91 75 58 40 26 18 13 7 1 359 357 359 358 355 353 352 355 354 352 345 340 335 329 321 319 312 292 273 261 252 247 243 247 251 253 256 262 268 272 276 279 283 288
95 70 48 32 21 11 4 357 352 349 346 346 345 344 344 345 345 349 347 345 339 332 329 331 332 333 322 304 285 272 267 250 218 234 247 255 260 265 270 275 279 283 286 291
74 58 35 14 359 351 348 346 343 340 337 335 334 336 336 337 338 340 338 335 330 325 328 332 336 328 315 307 295 282 274 265 249 241 243 248 258 265 270 272 276 281 286 280
58 35 15 1 349 341 338 336 335 333 332 331 329 328 325 326 329 329 330 327 323 323 334 333 330 315 314 313 304 284 275 268 258 250 250 245 248 258 265 271 276 282 286 291
23 2 350 341 340 337 332 332 329 327 327 326 323 320 320 321 321 321 321 316 322 331 330 329 321 314 313 317 318 298 285 273 265 258 253 255 257 263 267 272 280 288 292 292
340 336 333 333 332 329 327 327 323 320 320 320 318 316 315 315 314 314 314 313 323 332 326 316 311 317 321 330 315 296 287 275 264 256 253 257 264 270 276 284 290 295 296 298
326 326 327 326 323 320 321 317 311 310 313 315 315 314 312 310 310 310 308 311 317 334 324 318 319 333 333 319 304 297 290 278 263 257 255 263 271 279 285 291 295 301 305 307
316 317 316 314 313 311 307 305 305 309 311 312 309 307 307 309 308 306 308 320 323 333 321 317 330 329 317 307 303 296 286 275 264 259 263 275 285 293 296 300 307 313 313 314
307 306 305 304 303 299 298 302 305 304 302 299 299 304 305 302 302 307 314 321 323 324 317 324 325 320 310 307 310 309 306 305 294 276 281 296 307 308 311 316 321 323 320 322
299 299 297 298 296 297 301 300 297 296 296 300 304 307 305 305 309 314 316 317 324 320 318 325 328 323 319 327 336 342 344 358 356 348 355 346 338 333 335 336 334 327 325 331
292 291 295 296 295 292 291 293 297 302 304 305 307 309 311 313 313 315 316 320 326 329 325 326 331 332 335 340 350 357 3 19 25 16 8 358 354 355 356 348 338 333 331 336
285 283 280 279 285 291 298 300 300 301 302 304 309 312 312 312 315 321 325 327 331 334 338 341 345 347 350 359 11 20 22 22 22 15 8 5 2 1 357 348 344 340 338 343